Wind_Speed
6 3 3 3 4 6 7 9 11 11 12 13 13 14 15 15 14 14 14 13 13 13 13 13 13 14 14 15 16 16 16 16 15 15 16 17 18 18 19 19 19 19 19 19 19 20 20 21 21 21 21 21 22 23 23 24 24 24 24 25 26 26 26 27 28 29 30 30 31 31 31 31 31 31 31 31 31 31 30 30 29 29 29 29 28
5 3 2 2 4 5 7 8 9 9 10 12 11 12 13 14 14 13 13 13 11 10 11 12 12 12 12 13 14 15 15 15 15 15 14 15 15 16 17 18 18 18 19 19 19 20 20 20 20 20 20 20 20 20 21 21 21 22 22 22 23 23 24 25 26 27 28 28 29 29 30 30 30 30 29 29 29 30 29 29 27 27 27 27 26
4 4 2 2 3 4 6 7 7 7 9 10 10 11 11 13 13 13 12 12 11 9 8 9 10 11 11 11 12 13 13 14 14 14 13 13 13 14 15 16 17 17 18 18 19 19 19 19 19 19 19 19 19 19 19 19 20 20 20 20 21 22 23 23 24 25 25 26 27 27 28 28 28 28 28 27 27 27 27 27 26 25 25 25 24
6 6 5 2 2 4 4 5 6 6 8 11 10 10 10 11 13 13 12 11 10 8 6 7 9 9 10 9 10 11 12 12 12 13 13 12 12 13 13 14 15 15 16 17 17 18 18 18 18 19 19 19 19 19 19 19 19 19 19 19 19 20 21 21 21 22 23 24 24 25 25 25 26 26 27 26 25 25 25 25 25 24 23 23 23
9 9 8 5 3 4 3 3 5 5 7 9 10 11 11 10 11 12 12 10 9 8 5 5 7 8 8 8 8 9 10 11 11 11 12 12 11 12 12 12 13 13 14 14 15 15 16 17 17 18 18 18 18 19 19 19 19 19 19 18 18 19 19 20 20 20 21 22 22 23 23 23 24 24 25 24 23 23 24 23 23 23 23 22 22
12 11 10 8 5 4 3 2 4 4 5 6 8 11 11 9 10 10 11 10 8 7 5 4 5 7 7 7 7 8 9 10 10 10 10 10 11 11 11 11 11 11 12 12 13 13 14 16 16 17 17 17 18 18 18 18 18 19 19 18 18 18 18 18 18 19 19 20 20 21 21 21 21 22 23 23 22 22 22 22 22 21 22 21 21
14 14 13 11 10 6 3 1 2 4 5 6 7 9 10 9 9 9 10 10 9 6 4 4 5 5 6 6 6 6 7 8 9 9 9 9 9 10 10 10 10 10 10 11 11 12 13 14 15 16 16 17 17 17 18 18 18 18 19 19 18 18 18 18 18 18 18 19 19 19 20 20 20 20 21 21 21 22 22 22 21 20 20 21 21
18 17 16 14 13 10 6 4 3 4 7 8 6 7 8 8 8 7 8 9 9 7 4 4 6 5 5 5 5 5 5 6 7 7 7 7 8 8 8 9 9 9 10 10 11 11 12 13 14 15 16 17 17 17 17 18 18 18 18 18 18 18 18 18 18 18 18 18 18 19 19 19 19 20 20 20 20 21 21 21 21 20 20 20 21
22 21 19 16 15 13 10 8 7 5 6 9 7 5 7 7 7 6 6 8 8 7 5 5 6 6 4 3 4 4 4 4 5 6 6 6 6 6 7 8 8 8 9 10 10 11 12 12 13 15 16 17 17 17 17 17 17 18 18 18 18 18 18 18 18 18 18 18 18 19 19 19 19 19 20 20 20 20 21 20 20 20 19 19 20
25 24 21 18 17 14 12 10 10 9 6 7 6 4 5 6 6 6 5 7 8 7 6 5 7 8 6 3 2 3 3 3 3 4 4 4 5 5 5 6 7 7 7 8 9 10 11 11 12 14 15 16 17 17 17 17 17 17 17 17 17 17 18 18 18 18 18 18 19 19 19 19 19 19 19 20 20 20 20 20 20 20 19 18 18
25 24 22 19 19 16 14 12 11 11 7 6 5 4 5 7 8 8 7 6 7 7 7 6 6 8 8 5 1 1 2 2 2 2 3 3 3 4 4 4 5 6 6 7 8 9 10 10 11 12 14 15 16 16 16 16 16 16 16 16 16 16 17 18 18 18 18 18 18 19 19 19 19 19 19 20 20 20 20 20 20 20 20 19 18
26 25 22 19 20 19 17 14 11 12 9 7 6 6 7 9 12 12 10 8 7 7 8 8 7 8 9 7 3 1 0 1 2 2 2 2 2 2 3 3 4 4 5 5 6 7 8 9 10 11 13 14 15 15 16 16 16 16 15 15 15 15 16 17 17 17 18 18 18 18 18 19 19 19 19 19 20 20 20 20 20 19 19 19 18
28 27 25 22 21 22 22 18 14 13 11 9 7 7 9 11 13 14 12 10 10 9 9 9 9 9 9 9 5 3 2 2 2 3 3 3 2 2 2 2 2 3 3 4 5 6 7 8 9 10 12 12 13 14 15 16 16 16 16 15 15 15 15 15 16 16 17 17 17 18 18 18 18 18 18 19 19 20 19 19 19 19 18 18 18
27 27 28 27 25 26 25 22 18 15 13 10 7 7 9 11 13 13 11 10 10 10 10 10 10 10 10 10 8 5 4 4 3 4 4 5 4 3 3 2 1 1 2 3 3 5 6 7 8 9 10 11 12 13 14 16 17 17 16 16 15 15 15 15 16 16 16 16 17 17 18 18 18 18 18 18 19 19 19 19 19 18 18 17 17
26 24 26 28 29 30 29 25 22 18 15 12 10 9 10 11 14 14 12 10 10 9 9 10 10 10 10 10 9 7 6 6 6 4 5 6 5 5 4 4 3 1 0 1 2 3 4 6 7 8 9 9 11 12 13 15 16 17 17 17 16 16 15 16 16 16 16 16 16 17 17 18 18 18 18 18 18 18 18 17 17 17 17 16 16
27 24 25 27 29 29 30 29 26 21 16 16 16 15 13 14 14 13 13 11 12 12 11 9 9 9 9 10 10 9 8 8 8 6 5 6 7 6 6 5 4 3 2 2 2 2 3 4 5 6 6 8 9 10 12 13 15 16 17 17 16 16 16 16 17 17 17 17 17 17 17 17 17 17 18 18 17 17 17 16 16 15 15 15 14
29 28 27 26 27 28 30 32 30 25 21 19 21 20 16 16 16 14 13 10 9 12 13 10 9 10 11 11 11 10 9 9 9 9 8 7 8 8 7 6 5 5 4 4 4 3 3 3 3 4 5 6 8 9 10 12 13 15 16 17 16 16 17 17 17 17 17 17 17 17 17 17 17 17 17 17 17 16 16 15 15 14 14 13 13
32 32 31 29 31 33 33 33 30 28 25 21 20 20 17 16 15 14 12 9 7 10 13 13 13 14 15 14 12 11 10 10 10 10 11 10 10 9 8 7 6 6 5 6 6 6 5 4 4 4 5 5 6 8 9 11 12 13 15 16 17 17 17 17 17 17 17 18 18 18 18 18 18 17 17 17 17 16 16 15 15 15 14 13 12
39 39 39 41 43 42 40 38 33 29 26 22 19 18 16 15 13 12 12 10 7 9 12 14 16 17 17 15 15 14 11 10 11 11 11 12 12 11 10 9 8 7 7 6 6 7 7 7 7 6 6 6 6 7 8 10 11 12 14 16 17 17 18 18 18 17 18 18 18 18 18 18 18 18 17 17 17 17 16 16 15 15 14 13 12
45 48 49 51 51 48 45 41 35 31 27 24 21 18 17 16 13 12 12 10 10 11 12 14 17 18 18 17 16 17 14 10 11 11 11 13 14 13 13 11 10 9 8 7 7 7 7 8 8 9 8 8 8 8 8 10 11 12 13 15 16 18 18 18 18 18 18 18 18 18 18 18 18 18 18 18 18 17 17 16 16 15 14 14 13
50 54 55 55 52 50 48 42 38 33 28 25 23 20 18 15 11 13 14 12 11 13 14 16 18 19 18 16 16 18 16 11 10 11 11 13 15 16 15 14 13 12 10 9 8 8 7 8 9 10 10 10 10 10 10 10 11 12 13 14 16 17 18 18 19 18 18 18 18 18 18 18 18 18 18 18 18 17 17 17 16 15 15 14 13
59 59 59 56 51 49 49 45 40 36 30 26 24 21 17 13 12 15 17 16 12 13 16 18 20 20 18 15 14 17 17 13 12 13 12 13 15 17 17 17 16 15 14 12 10 9 8 8 8 9 10 11 11 12 12 11 12 12 13 13 15 16 17 18 19 19 19 19 18 18 18 18 18 18 18 18 18 18 17 17 16 16 15 14 14
65 63 61 57 51 49 49 47 43 39 35 30 26 23 19 15 15 17 19 18 14 16 20 23 25 25 21 18 15 16 17 18 17 15 14 14 14 14 16 16 17 17 17 15 13 12 10 10 9 10 10 11 11 12 12 12 13 13 13 14 14 15 17 17 18 18 18 19 18 18 18 18 17 18 18 18 18 18 17 17 16 16 15 15 14
67 66 63 60 56 53 51 50 48 45 41 36 31 27 24 21 22 23 23 21 18 21 26 28 30 27 23 21 19 18 19 21 20 17 16 16 14 14 15 16 17 17 18 18 17 15 13 12 11 11 12 12 12 13 13 14 14 14 15 15 15 15 16 17 17 18 18 18 18 18 17 17 17 17 17 17 17 17 17 17 16 15 15 14 14
70 69 66 64 61 59 57 54 52 48 43 38 34 31 27 25 27 29 28 25 23 26 28 29 31 29 26 23 22 22 23 23 22 18 16 16 17 16 18 18 18 19 19 19 19 17 16 16 15 15 15 15 15 16 16 15 15 16 16 16 16 16 16 16 17 17 17 17 17 17 17 17 16 16 16 16 16 16 16 16 15 14 14 14 13
71 70 69 67 64 62 60 58 55 50 44 39 35 31 29 29 32 35 33 28 27 30 31 30 30 30 28 26 25 25 24 22 23 21 18 18 20 21 21 21 21 20 20 20 20 19 18 18 18 18 18 18 18 19 18 18 18 17 18 18 18 17 16 16 16 16 17 16 16 16 16 16 16 15 15 15 14 14 14 14 14 13 13 13 12
73 71 71 70 67 64 62 60 59 55 50 46 41 35 32 34 39 43 40 35 34 34 32 31 29 28 28 28 28 28 25 23 24 24 22 21 22 24 25 25 25 24 21 19 20 20 20 20 19 20 20 21 21 21 21 20 20 19 19 19 19 19 18 17 16 16 16 16 15 15 15 15 15 15 14 14 13 13 13 13 12 12 12 12 11
76 75 73 72 70 67 64 63 61 59 56 53 48 44 42 42 46 49 45 41 40 38 36 35 33 30 31 31 30 29 28 26 26 26 26 24 24 26 27 27 28 28 25 21 19 19 20 21 21 20 21 22 22 23 22 22 21 20 20 19 19 20 19 18 17 16 15 15 15 14 15 15 15 14 14 13 12 12 11 11 11 10 10 10 10
78 78 76 75 73 70 67 65 64 63 61 58 54 52 51 51 53 53 51 47 44 40 39 38 36 34 33 32 31 31 31 29 28 29 28 28 28 27 27 29 29 29 29 26 23 21 21 20 20 20 21 22 22 23 23 23 22 22 21 20 19 19 19 19 18 17 16 14 14 13 14 14 14 14 13 13 12 11 10 10 9 8 8 8 8
80 80 79 78 76 73 70 68 67 65 64 62 59 57 55 56 57 57 55 52 48 44 42 41 40 38 35 33 33 33 33 31 30 30 30 30 30 29 29 29 30 30 30 29 27 25 24 22 20 20 20 21 22 22 23 23 22 22 22 21 20 20 19 19 18 18 16 14 13 12 12 12 13 13 13 12 11 10 9 8 8 7 7 6 6
84 84 83 81 79 77 73 70 69 68 67 65 62 59 58 59 60 60 58 57 56 53 50 48 46 44 40 37 36 36 35 32 30 31 32 32 33 32 29 29 30 31 30 29 29 27 26 25 23 21 21 21 21 22 22 22 22 22 22 22 21 21 20 20 19 18 17 15 13 11 10 10 11 11 11 11 10 8 7 7 7 6 5 4 4
86 86 85 83 82 80 77 73 70 69 69 67 65 63 61 61 62 62 62 61 61 62 59 56 53 49 45 44 43 43 43 41 38 36 35 35 34 33 30 29 31 32 31 29 29 28 27 27 26 24 23 21 21 21 22 23 23 23 23 23 23 23 22 21 19 18 17 16 13 11 10 9 9 9 10 10 9 7 6 5 5 5 4 2 2
87 87 86 84 82 81 79 77 75 72 70 69 66 65 65 64 63 64 65 63 62 63 62 59 57 54 51 49 48 47 47 46 46 45 43 39 37 34 31 30 31 33 32 30 30 30 29 30 29 28 26 23 21 21 22 23 23 23 23 23 23 23 23 21 20 18 17 16 14 11 10 8 8 9 10 10 10 8 6 5 5 4 4 3 1
90 89 88 86 85 82 80 78 77 76 74 72 69 68 67 66 66 67 67 66 64 63 59 56 54 54 54 53 50 47 45 44 44 46 47 44 41 38 35 33 34 34 33 32 32 32 33 33 32 30 28 26 24 22 22 22 23 23 23 23 23 22 22 21 19 17 16 15 14 12 10 9 8 9 10 11 11 10 7 6 6 6 6 5 4
92 91 89 88 86 85 82 80 78 78 77 76 74 72 71 70 69 69 69 68 67 65 62 58 55 54 54 54 52 50 49 47 45 45 47 47 45 42 39 38 38 37 35 34 33 34 36 36 35 32 30 28 26 24 23 23 23 23 22 22 21 20 20 19 18 16 15 14 14 12 10 9 9 10 11 12 13 13 10 8 8 8 8 7 7
93 92 91 90 88 87 85 83 81 80 79 79 78 76 75 73 72 72 71 70 68 67 66 65 61 58 57 56 55 53 52 52 50 49 49 50 48 46 44 42 41 38 36 35 34 35 38 38 37 35 32 30 28 27 26 25 24 23 21 20 19 18 18 18 18 17 16 15 15 14 13 12 11 11 11 12 14 15 13 11 10 10 10 9 9
95 94 93 93 91 89 87 85 83 82 81 81 81 79 78 76 75 74 74 73 71 70 69 68 66 64 62 60 59 57 54 53 53 52 52 53 52 50 48 46 43 39 37 36 35 35 37 40 40 38 35 33 31 30 30 27 25 23 22 21 19 17 17 17 18 18 18 17 17 17 16 15 14 13 13 13 15 17 16 14 12 12 12 11 11
97 97 96 95 94 93 90 88 86 85 83 82 81 81 81 79 78 77 76 75 74 73 72 70 68 67 65 63 61 60 57 55 55 55 55 55 55 55 53 51 48 43 41 41 37 31 31 36 41 41 39 37 34 33 32 30 27 25 24 24 22 19 16 15 15 16 17 17 17 17 16 16 15 14 14 15 17 18 19 18 16 15 15 13 13
98 97 97 97 97 96 94 91 89 88 86 84 83 82 82 81 80 80 79 78 77 75 73 72 70 69 67 66 64 62 61 59 58 58 57 57 57 57 57 56 54 50 48 46 39 29 27 34 40 42 42 40 38 35 33 32 31 29 28 28 27 25 21 17 16 16 18 18 17 17 16 16 15 15 15 17 19 20 21 20 19 19 18 15 16
101 99 98 98 97 96 95 93 91 89 87 85 83 82 82 82 82 81 80 79 79 77 75 73 71 71 70 69 67 66 64 63 62 61 60 60 59 59 58 58 57 55 53 50 41 30 29 35 41 43 44 43 41 38 35 35 35 34 33 32 32 31 29 25 23 21 22 22 21 18 17 16 16 16 17 19 20 22 23 23 22 21 20 17 19
103 103 101 100 98 97 96 95 93 92 89 87 84 83 83 83 83 82 81 80 80 78 77 75 74 73 73 72 71 69 67 66 65 65 64 63 62 61 60 59 58 57 56 55 48 40 36 39 42 45 46 45 44 42 40 38 39 39 38 37 36 35 33 31 30 28 26 25 24 22 20 18 18 18 19 20 21 22 24 25 25 24 21 19 21
105 104 103 102 100 99 98 97 97 96 94 92 89 87 86 85 84 83 83 82 81 80 79 78 77 76 75 74 73 72 71 69 69 68 67 65 64 64 63 62 60 59 59 60 59 56 53 52 51 51 50 49 48 48 46 43 41 42 42 42 41 38 35 33 34 33 31 29 26 25 24 22 21 21 21 22 23 23 25 27 28 26 23 21 22
106 105 104 103 102 101 100 100 99 99 97 96 94 92 90 89 87 86 85 84 84 83 82 81 80 79 77 76 76 75 74 73 72 71 70 68 67 66 65 64 63 62 63 64 66 67 67 66 63 60 57 55 54 53 52 49 46 45 45 46 45 42 38 36 36 36 36 34 30 28 27 26 25 25 25 24 25 26 27 29 29 28 25 23 24
108 106 105 104 103 102 102 101 101 101 100 99 98 96 95 93 91 90 88 87 86 86 85 84 83 82 80 79 78 78 77 76 74 73 72 71 70 69 68 68 67 67 67 68 69 70 71 71 70 67 65 63 60 57 56 55 53 51 49 49 48 46 43 40 40 40 39 38 35 32 30 29 29 29 28 28 27 28 28 29 30 30 29 27 26
109 108 107 105 104 104 104 103 103 102 102 101 101 100 98 97 95 94 92 91 90 89 89 88 87 86 84 83 81 80 79 78 77 76 75 74 73 72 71 71 72 72 72 73 74 74 74 73 73 71 69 67 64 61 59 58 57 56 55 53 52 50 47 45 44 44 42 41 39 36 34 33 32 31 31 30 30 30 29 30 31 32 32 31 29
112 111 109 108 107 106 106 105 105 104 103 103 102 101 101 100 99 97 96 95 94 93 92 92 91 89 88 87 85 83 82 81 81 80 78 77 76 75 74 74 74 75 76 77 78 78 77 76 74 72 71 69 66 63 61 59 58 58 58 57 55 53 50 49 48 47 46 44 44 42 40 38 36 35 34 33 33 32 31 31 32 32 33 33 31
115 113 112 111 110 108 108 107 107 106 106 105 104 103 102 102 101 100 99 99 97 96 95 95 94 93 92 90 89 87 86 85 84 83 82 80 79 77 77 76 77 77 78 78 79 80 80 78 76 73 71 69 67 65 63 62 60 60 59 59 58 56 53 51 51 50 49 47 47 47 46 44 42 40 38 37 36 34 33 33 32 32 33 34 33
117 116 115 113 112 112 111 110 109 109 108 108 107 106 105 104 103 102 102 101 100 100 99 98 97 96 95 93 92 91 90 88 87 86 85 83 81 80 79 78 78 79 79 80 80 80 80 80 78 75 72 70 68 66 65 63 62 62 60 59 60 59 55 52 51 51 51 50 49 50 50 49 47 46 44 42 40 38 37 35 34 33 33 34 34
118 118 117 117 116 115 114 112 112 111 111 111 110 109 108 107 106 105 104 103 102 101 100 100 99 98 97 96 95 94 93 91 90 89 88 86 85 83 81 80 80 79 80 80 81 81 80 80 79 76 74 71 70 68 67 64 63 63 62 61 61 61 58 54 51 51 52 52 52 52 51 51 50 50 48 47 45 43 41 39 38 36 34 34 35
119 119 119 119 119 118 117 116 115 114 114 114 113 112 111 110 108 107 106 105 104 103 103 102 101 100 100 99 97 96 95 94 93 92 91 90 88 86 84 83 82 81 80 80 81 81 81 80 79 77 76 74 72 71 69 66 64 65 66 65 64 63 61 58 54 53 53 54 54 54 54 54 53 52 52 51 50 48 45 43 42 40 38 37 36
118 119 120 120 120 119 119 118 118 118 117 116 115 114 114 112 111 110 109 108 107 106 105 104 104 103 102 101 100 99 98 97 96 96 94 93 91 90 88 86 84 83 82 81 81 81 81 80 79 78 77 76 75 74 72 69 67 68 70 70 68 66 64 62 61 58 57 57 57 56 56 56 56 55 55 54 54 52 50 48 46 44 43 41 40
Wind_Direction
293 292 301 350 33 40 53 50 42 38 35 37 37 31 31 34 39 48 56 65 74 79 80 80 78 72 68 67 67 67 68 69 70 69 69 68 68 67 67 67 67 67 65 64 63 62 60 60 60 58 59 60 60 62 62 63 64 64 63 64 65 64 64 64 64 64 65 65 66 67 68 69 71 73 74 76 77 77 76 77 77 78 79 79 77
299 287 290 19 33 45 61 55 46 43 37 39 39 30 26 29 33 41 52 64 73 77 77 79 82 78 73 70 69 69 69 69 70 70 69 69 69 67 66 65 64 62 62 61 61 60 59 58 57 55 55 56 57 57 58 60 62 62 60 61 62 62 62 61 61 62 63 64 64 65 66 68 69 70 70 71 75 77 76 75 74 75 76 77 77
276 274 293 28 39 44 60 54 49 52 44 42 43 34 24 22 25 31 42 58 70 76 72 72 80 85 83 78 73 72 72 71 71 71 70 69 69 67 66 65 62 59 57 56 57 56 55 54 53 53 52 53 53 53 53 54 57 59 58 57 58 58 58 59 57 57 59 60 62 63 64 65 66 68 69 68 69 73 76 75 73 71 71 73 75
253 265 284 318 16 26 47 55 52 65 56 49 47 40 29 19 17 21 31 46 65 74 69 62 71 83 90 89 82 80 77 75 73 73 72 71 69 68 67 66 63 59 56 54 53 51 50 49 50 50 49 48 50 50 50 50 51 53 54 54 54 54 55 55 53 53 53 55 57 59 61 62 63 65 68 68 68 69 72 73 73 71 68 68 69
240 258 274 280 310 9 46 75 59 72 65 51 42 32 27 20 12 12 19 31 52 67 68 54 58 73 86 91 89 88 86 83 79 76 75 74 73 72 71 69 67 63 59 55 51 48 47 47 48 48 47 45 46 47 48 47 47 48 50 50 50 50 52 52 50 49 49 49 51 54 56 58 61 63 66 67 67 68 69 70 71 71 69 67 66
232 248 261 264 271 346 37 100 66 55 43 36 27 18 19 18 10 7 12 19 34 53 56 38 44 62 74 82 87 90 92 91 89 83 81 80 77 76 75 74 73 69 64 59 53 49 47 48 48 48 48 46 45 44 45 46 46 45 46 47 46 45 47 48 48 46 45 45 46 48 51 54 57 61 65 66 66 66 66 67 68 69 69 68 66
224 238 250 254 256 282 333 17 37 19 7 6 9 9 10 12 8 5 10 14 21 33 36 13 19 50 68 74 81 89 94 97 98 95 90 87 83 82 80 79 78 76 72 66 60 55 52 51 51 52 51 49 46 43 42 44 45 45 45 44 44 43 42 43 44 43 43 43 43 44 47 49 53 57 62 65 65 65 64 64 65 67 68 67 64
223 231 238 244 248 258 282 313 337 353 356 354 351 357 3 7 4 3 12 15 14 15 14 356 351 17 58 73 76 87 97 100 104 105 100 95 90 86 86 84 81 81 78 74 68 64 60 57 57 56 54 51 48 45 43 44 45 45 45 45 43 42 41 41 41 41 41 41 42 43 44 46 49 53 57 61 63 63 63 64 63 64 65 66 64
223 229 232 235 241 250 264 287 314 323 340 348 345 345 356 0 356 357 7 11 10 6 356 343 335 346 22 69 77 83 101 109 109 113 110 104 98 91 87 85 82 80 80 78 74 70 67 63 60 59 56 53 50 47 44 45 45 46 46 45 45 43 43 41 40 40 40 40 42 43 44 46 48 50 53 56 59 59 60 60 61 60 61 63 64
220 227 231 232 236 245 255 273 305 312 313 335 341 340 347 350 345 342 344 356 4 359 348 336 327 330 345 28 77 79 95 120 127 123 125 116 106 99 92 88 84 81 79 79 77 74 70 67 62 59 56 54 52 49 46 45 47 46 46 46 46 45 45 43 40 40 40 40 42 42 44 46 47 48 49 51 53 55 56 56 55 56 56 59 61
216 223 229 234 234 241 253 264 295 310 298 305 326 326 335 343 341 333 328 341 354 352 344 335 323 323 332 349 34 71 77 122 154 151 147 136 119 110 104 97 89 83 78 78 78 76 73 69 64 60 57 55 53 49 46 46 48 49 48 47 47 48 48 45 42 41 40 40 41 43 44 45 45 46 46 48 49 50 52 53 53 53 53 55 57
216 221 228 237 238 242 251 256 279 303 288 274 300 314 328 343 343 337 326 324 339 343 339 333 325 321 325 332 334 277 267 133 178 198 188 179 161 132 122 115 104 94 81 77 75 75 74 71 67 63 59 56 52 47 44 44 46 49 50 49 49 50 49 49 46 44 43 43 42 43 43 44 45 44 44 46 47 47 49 52 53 53 53 53 53
223 225 230 241 247 246 250 253 264 287 283 267 285 315 328 332 334 337 329 318 326 333 330 331 329 324 323 323 322 287 252 236 210 213 218 217 219 199 171 154 132 112 92 81 72 71 72 70 68 65 62 58 51 46 42 40 42 45 47 48 49 49 49 51 51 49 48 46 45 44 44 44 44 44 44 45 46 46 47 51 53 53 55 54 53
229 232 236 244 249 247 249 252 255 269 281 274 273 308 324 315 312 327 333 318 318 326 323 325 327 326 325 322 318 299 265 253 238 224 224 230 240 242 235 235 201 146 106 90 73 67 66 68 68 66 64 60 54 47 41 38 39 41 42 44 44 46 46 48 52 52 50 49 48 46 46 46 45 44 45 45 45 45 45 48 50 51 53 54 53
229 236 241 245 247 246 249 252 250 255 272 272 261 280 313 312 303 318 333 318 309 321 320 316 320 322 326 324 316 305 283 268 256 241 231 234 244 251 257 266 270 264 259 76 68 63 60 63 66 66 64 60 56 50 42 37 37 37 39 40 40 41 42 44 47 49 49 48 48 48 47 49 47 45 45 45 45 44 43 44 45 46 46 48 49
229 239 245 245 244 245 249 251 249 248 259 265 263 270 296 313 308 313 327 315 305 318 322 317 319 321 326 328 320 308 295 286 273 258 245 239 246 257 261 269 280 279 286 316 349 28 42 50 57 60 57 53 51 48 42 36 33 33 35 36 37 37 38 40 42 45 45 44 45 46 46 48 49 48 48 47 45 44 42 40 39 39 39 40 42
229 240 245 245 246 246 249 250 246 244 249 260 265 267 280 302 307 310 320 312 300 315 324 330 336 334 332 329 323 314 301 295 286 269 259 251 252 261 266 272 280 281 287 306 320 335 354 11 27 36 40 41 41 40 37 33 30 29 29 30 31 33 35 37 38 40 42 41 41 43 44 46 49 49 49 48 46 44 41 38 36 36 36 36 36
223 233 239 241 240 239 241 243 240 240 244 254 263 267 278 294 297 298 307 302 290 310 322 329 333 332 331 326 322 318 304 294 291 277 267 264 262 264 269 275 277 279 287 300 310 321 330 336 347 1 13 20 25 27 27 25 24 23 22 22 22 25 28 31 33 34 37 39 38 40 41 43 46 48 49 49 47 45 43 41 38 37 38 38 36
223 225 228 231 231 231 236 241 240 237 241 251 260 266 277 289 290 289 297 297 291 304 313 315 317 319 320 317 314 313 304 289 285 279 268 265 267 267 269 272 274 277 285 291 301 312 319 325 327 333 345 353 0 8 13 15 15 15 15 14 15 17 20 24 26 28 31 34 35 37 38 40 44 47 48 48 48 48 47 46 44 42 41 40 38
223 223 222 225 228 231 237 242 241 237 238 246 251 258 272 282 286 287 293 302 310 311 304 299 301 302 303 304 303 306 305 293 283 280 271 263 263 263 264 267 269 271 277 284 291 301 309 316 321 325 331 337 342 350 358 3 5 6 7 8 8 10 13 16 19 21 24 28 30 32 34 36 41 44 46 47 48 50 50 50 49 47 45 44 41
220 223 225 226 227 231 235 237 238 239 240 241 243 254 267 272 273 280 283 289 309 314 299 289 285 282 284 288 292 296 296 288 277 272 266 257 255 256 257 259 263 263 266 271 278 288 299 308 315 321 326 332 336 340 346 350 354 357 359 1 3 4 7 10 13 15 18 22 24 27 30 32 37 42 43 45 47 49 50 51 52 51 49 47 46
222 226 228 228 227 230 233 234 236 239 240 239 241 251 259 259 264 272 266 259 280 299 287 276 267 260 259 266 279 288 283 276 272 265 261 256 249 249 250 251 253 254 256 259 262 271 284 296 306 313 321 329 333 335 338 341 345 348 349 352 356 358 359 4 8 11 13 17 20 22 25 29 34 38 40 43 45 47 48 50 52 52 50 49 49
226 226 228 228 226 228 232 235 237 239 240 241 245 249 247 246 257 263 252 245 258 272 264 254 246 245 248 251 265 281 277 276 282 281 282 278 263 255 256 256 257 255 251 249 251 256 266 278 291 300 309 320 328 331 334 335 337 340 341 343 347 350 352 357 3 6 10 14 16 18 21 25 30 34 38 40 42 44 45 48 51 50 48 49 50
228 227 227 229 229 230 234 237 239 243 245 245 247 250 247 244 248 249 245 243 248 253 251 248 244 247 253 254 262 275 271 269 277 286 291 286 272 266 265 263 266 265 259 253 248 248 253 260 271 281 292 303 313 320 325 329 332 334 335 336 339 342 345 349 356 2 7 10 12 14 17 22 26 30 35 38 40 41 42 45 48 49 48 50 51
230 230 230 232 234 235 237 238 240 243 246 245 246 251 251 247 245 245 245 247 246 246 248 250 250 254 258 254 256 264 263 261 264 275 286 280 269 267 265 262 262 263 265 263 256 252 251 252 257 267 278 289 297 305 312 318 324 327 330 331 333 337 339 342 349 356 2 7 9 10 13 17 21 25 30 35 37 38 40 43 46 48 48 51 52
232 232 231 232 234 236 238 238 239 240 241 239 239 242 243 244 245 247 247 244 242 244 248 251 253 258 258 251 247 253 257 258 259 268 281 276 268 267 267 266 264 262 264 265 264 262 260 258 259 262 269 278 286 294 301 307 313 317 321 324 327 332 335 336 341 349 356 2 6 6 7 11 16 20 24 30 35 36 37 40 43 47 50 51 53
233 234 234 233 234 236 237 238 238 238 237 235 232 229 229 233 239 242 242 239 239 243 247 249 251 253 253 250 249 253 256 257 258 267 274 272 267 266 267 269 270 269 269 268 267 269 270 272 272 270 272 277 282 288 293 298 303 307 311 315 319 325 329 332 334 341 349 356 1 3 3 6 10 14 16 22 30 34 34 36 40 47 52 52 55
233 234 235 234 234 235 236 237 238 237 237 236 232 227 224 225 231 237 237 238 242 245 246 247 246 247 251 253 253 256 259 259 259 264 266 265 264 266 267 269 270 271 272 272 273 275 275 278 280 281 282 283 284 287 289 292 295 298 302 307 310 316 321 324 327 332 340 348 355 359 359 0 4 7 9 12 22 28 30 31 36 45 54 55 58
233 233 234 235 234 235 235 236 237 237 236 235 233 229 226 226 231 237 237 236 239 240 241 244 244 246 251 253 252 255 257 257 258 259 259 260 262 263 265 267 267 268 268 269 273 278 279 281 283 285 286 286 285 286 287 289 291 293 296 299 302 306 311 315 319 322 328 336 346 353 355 356 358 360 1 3 11 18 21 22 28 40 52 56 61
235 235 234 234 234 234 234 235 236 237 236 236 235 232 231 231 235 239 240 237 235 234 236 241 244 246 249 250 250 251 251 253 257 255 252 253 257 258 259 262 263 262 262 263 267 273 278 280 283 287 289 289 287 285 284 285 286 288 289 291 294 297 301 306 309 311 316 323 333 342 348 351 351 351 352 353 358 5 7 8 14 29 45 52 58
235 235 235 235 234 233 233 234 235 236 236 236 236 234 232 233 234 238 239 238 236 235 239 243 245 245 245 245 245 246 248 252 256 254 249 249 251 252 254 259 262 261 259 259 261 268 275 277 280 285 290 291 290 287 286 286 285 284 284 285 287 289 292 296 298 301 303 308 316 326 335 341 341 341 340 339 343 350 353 352 354 7 29 42 44
233 235 236 236 235 234 234 234 234 236 236 236 236 235 234 235 235 236 238 239 239 240 243 247 249 247 245 244 244 245 249 254 257 253 249 247 246 247 252 257 261 262 259 256 256 263 270 272 276 281 285 288 288 287 287 288 286 285 285 285 285 285 287 288 290 291 292 294 299 306 314 322 324 325 325 323 323 328 330 328 328 335 351 10 21
233 235 236 236 236 236 235 235 235 236 236 236 236 236 236 237 237 237 237 239 242 244 247 250 251 249 248 246 245 247 251 256 258 253 248 246 244 244 250 254 256 259 259 255 255 259 264 267 270 275 279 282 284 282 283 286 286 285 284 283 282 281 281 282 283 283 282 282 284 287 291 297 302 305 306 306 306 306 301 292 289 294 300 298 279
233 235 236 236 237 237 237 236 236 236 237 237 237 237 237 238 238 238 238 238 241 245 248 248 248 248 250 249 247 246 246 248 252 250 246 246 245 244 246 249 250 253 255 255 257 260 263 265 267 270 273 277 280 278 278 281 283 282 281 280 278 277 277 278 280 280 279 277 275 274 273 273 278 284 288 292 294 291 282 269 264 264 270 273 261
234 235 236 237 237 238 238 237 237 238 238 238 238 237 238 238 238 239 240 240 242 244 245 245 247 248 249 249 250 248 244 243 246 247 245 245 245 244 245 247 247 249 251 254 258 262 264 265 265 266 268 270 273 272 270 272 275 276 278 278 278 279 279 279 280 281 283 283 280 277 273 268 264 266 274 280 284 283 276 261 255 254 256 260 262
233 234 235 236 237 237 237 238 238 239 240 240 240 239 239 239 240 240 241 242 242 243 243 245 248 248 248 250 251 250 248 245 245 246 245 245 245 244 245 247 248 248 249 252 256 261 263 262 260 261 262 263 265 264 262 263 266 270 276 280 282 283 283 281 280 279 281 283 283 282 280 276 270 266 267 272 276 277 273 263 253 251 250 253 258
233 234 234 235 236 236 236 237 237 238 239 240 241 241 240 240 241 241 242 243 243 243 244 246 248 248 248 250 251 250 249 246 244 244 246 246 244 243 244 246 247 245 245 249 256 261 262 259 255 255 258 258 258 258 259 262 264 267 273 278 280 280 280 277 274 272 270 269 270 271 270 269 267 266 265 267 269 270 270 264 255 249 245 245 251
233 233 234 234 235 236 236 236 237 237 238 238 240 241 241 241 241 241 242 243 243 244 245 247 248 248 248 248 248 249 248 245 243 243 246 246 245 244 242 243 244 243 242 246 252 257 257 254 252 252 255 256 254 254 258 263 265 264 266 268 269 269 271 273 270 267 265 263 260 260 259 258 259 260 260 260 263 264 264 262 257 250 243 238 244
233 233 233 234 235 236 236 237 237 237 236 236 237 239 240 240 241 241 241 242 243 244 245 246 247 248 248 247 247 247 246 244 243 244 245 245 246 245 243 242 242 242 242 243 247 248 247 248 250 251 252 253 251 252 255 260 263 262 261 262 263 262 263 267 269 267 265 264 261 257 254 254 253 254 256 257 258 260 261 259 256 250 242 234 239
234 234 233 234 234 235 236 236 236 236 235 235 235 236 237 238 239 240 241 242 242 243 244 245 245 246 246 247 247 246 245 244 244 244 244 244 244 244 245 244 242 242 242 240 239 240 243 246 249 250 250 250 249 249 251 254 259 261 259 260 262 262 260 260 263 263 261 260 260 257 253 251 249 249 250 253 256 258 261 261 257 251 242 232 235
235 235 235 235 234 234 235 235 236 236 235 235 234 234 235 236 237 239 240 241 242 243 243 243 243 244 245 246 246 246 245 244 244 244 244 244 244 243 243 243 243 243 242 236 230 227 233 241 248 250 249 249 250 249 248 250 255 259 260 259 260 262 261 258 259 261 260 259 259 257 254 252 250 248 246 247 251 255 259 260 258 252 243 234 234
236 236 237 236 236 235 235 235 236 237 237 236 235 235 235 235 236 237 238 239 240 241 242 242 242 242 243 245 245 245 245 245 244 244 244 244 244 243 242 242 241 242 241 236 230 228 232 240 248 250 248 250 252 252 251 250 251 255 258 258 258 259 260 258 256 256 257 258 258 256 254 253 252 252 250 247 247 249 253 255 255 252 246 238 234
237 237 237 238 237 237 236 236 236 236 237 237 236 236 236 236 236 237 237 238 239 239 239 240 241 241 242 243 243 244 245 245 245 245 244 244 244 244 243 242 240 239 240 238 235 234 237 241 246 247 247 251 255 255 253 251 250 252 255 257 257 257 257 257 255 253 254 255 255 254 253 253 252 253 254 252 250 248 248 251 254 253 250 242 236
239 238 238 238 238 239 238 238 237 237 237 237 237 237 237 237 237 237 238 238 238 238 238 239 240 241 241 241 242 243 244 244 244 244 245 245 244 243 243 243 240 238 238 238 238 238 240 242 245 247 248 252 256 256 254 252 250 250 251 254 255 254 254 254 254 253 251 251 252 253 252 252 250 250 252 254 254 251 249 250 252 254 252 246 241
239 240 239 239 239 240 240 240 239 238 238 238 238 238 238 238 238 238 238 238 238 238 239 239 239 240 240 241 241 242 242 243 243 244 244 244 244 244 244 243 242 240 238 238 238 241 243 245 247 249 251 254 255 255 253 252 251 249 248 250 252 252 251 252 253 253 251 250 251 252 252 251 249 247 248 251 253 253 253 251 251 251 251 249 245
239 239 239 239 239 240 240 240 240 240 240 239 239 239 238 238 238 238 238 238 238 239 239 239 239 239 240 240 241 241 242 242 243 243 243 244 245 245 244 244 244 243 242 240 240 242 245 248 250 252 253 254 255 254 252 250 249 248 246 246 248 250 249 249 251 252 251 249 249 250 251 251 250 248 248 250 251 253 255 255 253 252 252 251 249
239 239 239 239 239 239 240 240 241 241 241 241 240 240 240 239 239 238 238 238 238 239 239 240 240 240 240 240 241 241 241 241 242 243 244 244 244 244 244 244 244 244 244 243 243 243 245 247 250 251 252 253 253 253 251 249 248 248 246 245 246 248 247 247 249 250 249 248 248 249 250 251 251 250 250 250 251 252 255 257 257 256 255 254 252
239 239 239 239 239 239 240 240 240 241 241 242 241 241 241 240 240 240 239 239 239 239 240 240 241 241 241 241 241 241 241 241 242 242 244 244 245 244 244 244 244 245 245 245 245 245 245 247 248 249 250 251 251 251 250 248 247 247 247 245 245 246 245 245 247 248 248 248 247 248 248 250 251 251 251 251 252 252 254 257 259 259 258 257 255
239 240 240 240 240 240 240 240 240 241 241 242 242 242 242 241 241 241 241 241 240 240 240 240 240 241 241 241 242 242 242 242 243 243 243 244 245 245 244 244 244 244 245 245 246 246 246 246 247 247 247 248 248 248 248 247 246 246 246 245 243 243 243 243 244 247 248 248 247 247 248 249 250 251 252 252 253 253 254 255 256 258 259 260 258
240 240 240 240 240 240 240 240 240 241 241 242 242 242 242 242 242 242 242 242 242 241 241 241 241 241 242 242 243 243 243 243 243 243 244 244 244 245 245 244 244 244 244 245 246 247 247 246 246 246 246 246 246 246 246 246 245 244 244 244 242 241 241 242 244 246 248 249 248 248 249 249 250 251 252 253 253 253 254 254 254 256 258 260 260
241 241 241 241 241 241 241 241 241 241 241 241 242 243 243 243 243 243 243 243 243 242 242 242 242 242 242 243 243 243 243 244 244 244 244 244 245 245 245 245 244 244 244 244 245 246 247 247 247 247 246 246 245 245 245 244 244 243 243 243 243 241 241 242 243 246 248 250 249 249 249 250 250 251 252 253 253 253 253 253 254 255 256 258 261
Height
11038 11039 11039 11039 11039 11039 11038 11038 11038 11037 11036 11036 11034 11033 11033 11032 11031 11031 11030 11029 11028 11027 11026 11026 11025 11024 11023 11023 11022 11022 11021 11021 11021 11020 11020 11019 11019 11018 11017 11017 11016 11016 11015 11014 11013 11012 11011 11010 11009 11009 11008 11007 11006 11005 11004 11003 11002 11001 11001 10999 10998 10998 10997 10995 10993 10991 10990 10989 10988 10986 10985 10984 10984 10983 10982 10981 10981 10980 10980 10980 10980 10979 10978 10978 10978
11038 11039 11039 11039 11039 11039 11039 11038 11038 11038 11037 11036 11035 11034 11033 11032 11032 11031 11031 11031 11030 11029 11028 11027 11026 11025 11025 11024 11023 11023 11022 11022 11022 11021 11021 11021 11020 11020 11019 11018 11018 11018 11017 11016 11015 11014 11013 11012 11011 11011 11010 11009 11008 11007 11006 11005 11004 11004 11003 11002 11001 11000 10999 10997 10996 10994 10993 10992 10991 10989 10989 10988 10987 10986 10985 10985 10983 10982 10982 10982 10982 10982 10981 10980 10980
11037 11039 11039 11039 11039 11039 11039 11039 11038 11038 11037 11037 11036 11035 11034 11033 11032 11032 11032 11031 11031 11030 11029 11028 11028 11027 11026 11025 11025 11024 11024 11023 11023 11022 11022 11022 11021 11021 11020 11019 11019 11019 11018 11017 11017 11016 11015 11014 11014 11013 11012 11011 11010 11010 11009 11008 11007 11006 11005 11004 11003 11002 11000 10999 10998 10997 10996 10995 10993 10992 10992 10991 10990 10988 10988 10987 10986 10985 10984 10984 10984 10984 10983 10983 10982
11036 11038 11039 11040 11039 11039 11039 11039 11039 11038 11038 11037 11036 11035 11034 11034 11033 11032 11032 11032 11031 11031 11030 11030 11029 11029 11028 11027 11026 11026 11025 11025 11024 11023 11023 11022 11022 11022 11021 11020 11020 11020 11019 11019 11018 11018 11017 11017 11015 11014 11014 11013 11012 11011 11010 11010 11009 11007 11006 11006 11004 11003 11002 11001 11000 10999 10998 10997 10996 10995 10994 10993 10992 10991 10990 10990 10989 10988 10987 10986 10986 10986 10986 10985 10984
11035 11036 11038 11039 11039 11039 11039 11039 11039 11039 11039 11038 11037 11036 11035 11034 11033 11033 11032 11032 11032 11032 11031 11030 11030 11030 11029 11029 11028 11027 11027 11026 11025 11025 11024 11023 11023 11022 11022 11021 11021 11021 11021 11021 11020 11020 11019 11018 11017 11016 11015 11015 11014 11013 11012 11011 11010 11009 11008 11007 11006 11005 11003 11003 11002 11002 11001 10999 10998 10997 10996 10995 10994 10993 10992 10992 10991 10990 10989 10989 10988 10987 10987 10987 10986
11033 11035 11036 11038 11039 11039 11039 11039 11039 11039 11039 11038 11038 11037 11036 11035 11034 11033 11033 11033 11033 11032 11032 11031 11031 11031 11031 11030 11029 11028 11028 11027 11026 11026 11025 11025 11024 11024 11023 11023 11022 11022 11022 11022 11022 11021 11021 11020 11019 11018 11017 11016 11016 11015 11014 11013 11012 11010 11009 11008 11007 11006 11005 11005 11004 11003 11003 11002 11001 11000 10999 10998 10997 10995 10995 10994 10993 10992 10991 10991 10990 10989 10989 10988 10988
11032 11034 11035 11037 11037 11038 11038 11039 11039 11039 11038 11038 11038 11037 11036 11036 11035 11034 11033 11033 11033 11033 11032 11032 11031 11032 11031 11031 11030 11029 11029 11028 11028 11027 11027 11026 11026 11025 11025 11024 11024 11024 11023 11023 11023 11023 11022 11021 11021 11020 11019 11018 11017 11016 11015 11014 11013 11012 11011 11009 11009 11008 11007 11007 11006 11005 11004 11004 11003 11002 11001 11000 10999 10998 10997 10996 10995 10994 10993 10992 10992 10991 10991 10990 10990
11030 11032 11034 11035 11036 11037 11037 11038 11039 11039 11038 11038 11038 11037 11037 11036 11035 11034 11034 11033 11033 11033 11033 11032 11032 11032 11032 11031 11031 11030 11029 11029 11029 11028 11028 11027 11027 11026 11026 11026 11025 11025 11024 11024 11024 11024 11023 11023 11022 11021 11020 11019 11018 11017 11016 11015 11014 11013 11012 11011 11010 11009 11009 11008 11008 11007 11006 11005 11004 11004 11003 11002 11001 11000 10999 10998 10997 10996 10995 10994 10994 10993 10992 10992 10991
11028 11030 11032 11033 11034 11035 11036 11037 11037 11038 11038 11037 11037 11037 11036 11036 11035 11035 11034 11034 11033 11033 11033 11033 11032 11032 11032 11032 11031 11031 11030 11030 11030 11030 11029 11028 11028 11027 11027 11027 11026 11026 11026 11025 11025 11025 11024 11024 11023 11022 11021 11020 11019 11018 11018 11017 11015 11014 11014 11013 11012 11011 11010 11010 11009 11008 11008 11007 11006 11005 11004 11003 11003 11002 11001 11000 10999 10998 10997 10996 10995 10995 10994 10993 10992
11026 11028 11030 11032 11033 11034 11035 11035 11036 11037 11037 11037 11036 11036 11036 11036 11035 11035 11034 11034 11034 11033 11033 11033 11032 11032 11032 11032 11032 11031 11031 11030 11030 11030 11030 11029 11029 11028 11028 11028 11028 11027 11027 11026 11026 11026 11025 11025 11024 11023 11022 11021 11021 11020 11019 11018 11016 11016 11015 11014 11013 11012 11011 11011 11010 11010 11009 11008 11007 11006 11006 11005 11004 11003 11003 11002 11001 11000 10999 10998 10997 10996 10995 10995 10994
11024 11026 11028 11029 11031 11032 11033 11034 11035 11035 11036 11036 11036 11036 11035 11035 11035 11035 11035 11035 11034 11034 11033 11032 11032 11031 11031 11032 11032 11032 11032 11031 11031 11031 11031 11030 11030 11029 11029 11029 11029 11028 11028 11028 11027 11027 11026 11026 11025 11025 11024 11023 11022 11021 11020 11019 11017 11016 11016 11015 11014 11013 11013 11012 11011 11011 11010 11009 11009 11008 11007 11006 11006 11005 11004 11004 11003 11002 11001 11000 10999 10998 10997 10996 10995
11022 11024 11026 11028 11029 11030 11031 11032 11033 11034 11035 11035 11035 11035 11035 11036 11036 11036 11036 11035 11035 11034 11033 11032 11031 11031 11031 11031 11032 11032 11032 11032 11031 11031 11031 11031 11031 11030 11030 11030 11029 11029 11029 11029 11028 11028 11027 11027 11026 11026 11025 11024 11023 11022 11021 11020 11019 11017 11017 11016 11015 11015 11014 11013 11012 11012 11011 11011 11010 11009 11008 11008 11007 11006 11006 11005 11004 11003 11002 11001 11000 10999 10998 10997 10996
11020 11023 11025 11026 11027 11028 11029 11031 11031 11032 11033 11034 11034 11035 11035 11035 11035 11035 11035 11035 11035 11034 11033 11033 11032 11031 11031 11031 11031 11032 11032 11032 11031 11031 11031 11031 11031 11031 11031 11030 11030 11030 11030 11030 11029 11029 11028 11028 11027 11026 11026 11025 11024 11023 11022 11021 11020 11019 11018 11017 11016 11015 11015 11014 11013 11013 11012 11012 11011 11010 11009 11009 11008 11008 11007 11006 11005 11004 11004 11003 11002 11001 11000 10998 10997
11019 11022 11024 11025 11026 11026 11027 11028 11029 11030 11032 11033 11034 11034 11034 11034 11034 11034 11034 11034 11034 11034 11033 11033 11032 11031 11031 11031 11031 11031 11032 11031 11031 11031 11031 11031 11031 11031 11031 11031 11030 11030 11030 11030 11030 11030 11029 11029 11028 11028 11027 11026 11025 11024 11024 11023 11021 11020 11019 11018 11017 11017 11016 11015 11014 11014 11013 11013 11012 11011 11010 11010 11009 11009 11008 11007 11006 11006 11005 11004 11003 11002 11001 11000 10998
11018 11021 11022 11023 11023 11024 11025 11026 11026 11028 11030 11032 11032 11032 11032 11033 11033 11033 11033 11033 11033 11033 11033 11032 11032 11031 11031 11031 11031 11031 11031 11031 11031 11031 11031 11031 11031 11031 11031 11031 11031 11031 11030 11030 11030 11030 11030 11029 11029 11029 11028 11027 11026 11026 11025 11024 11023 11022 11021 11019 11018 11018 11017 11017 11016 11015 11014 11014 11013 11012 11012 11011 11010 11010 11009 11008 11007 11007 11006 11005 11004 11003 11002 11001 10999
11019 11019 11019 11020 11021 11022 11022 11022 11023 11026 11028 11029 11030 11030 11031 11032 11032 11032 11032 11032 11032 11032 11032 11032 11031 11031 11031 11031 11031 11031 11031 11031 11032 11031 11031 11031 11031 11031 11031 11032 11032 11031 11031 11030 11030 11030 11030 11030 11029 11029 11029 11028 11027 11026 11026 11025 11024 11023 11022 11021 11020 11019 11018 11018 11017 11016 11015 11015 11014 11014 11013 11012 11011 11011 11010 11009 11009 11008 11007 11006 11005 11004 11003 11001 11000
11021 11018 11018 11020 11020 11018 11018 11018 11020 11022 11025 11027 11028 11029 11030 11031 11031 11031 11031 11031 11031 11032 11032 11031 11031 11031 11030 11030 11030 11031 11031 11031 11032 11032 11031 11031 11031 11031 11031 11032 11032 11032 11031 11031 11030 11030 11030 11030 11030 11029 11029 11028 11028 11027 11026 11026 11025 11024 11023 11022 11021 11020 11019 11019 11018 11017 11016 11016 11015 11015 11014 11013 11012 11012 11011 11010 11009 11009 11008 11007 11006 11005 11003 11002 11001
11021 11019 11018 11018 11014 11011 11012 11012 11015 11019 11023 11026 11027 11028 11030 11031 11031 11031 11031 11030 11030 11031 11031 11030 11030 11030 11030 11030 11030 11030 11031 11031 11031 11032 11032 11031 11031 11031 11032 11032 11032 11032 11032 11031 11031 11030 11030 11030 11030 11030 11029 11029 11028 11028 11027 11027 11026 11025 11025 11024 11023 11021 11021 11020 11019 11018 11017 11017 11016 11016 11015 11014 11013 11013 11012 11011 11010 11009 11008 11007 11006 11005 11004 11003 11002
11016 11013 11009 11005 11002 11003 11005 11008 11012 11017 11023 11025 11026 11027 11029 11030 11030 11030 11030 11030 11029 11030 11030 11029 11028 11028 11028 11029 11029 11029 11030 11030 11031 11031 11032 11032 11032 11032 11032 11032 11032 11032 11032 11031 11031 11031 11030 11030 11030 11030 11030 11030 11029 11029 11028 11027 11027 11026 11026 11025 11024 11023 11022 11021 11020 11019 11018 11018 11017 11016 11016 11015 11014 11014 11013 11012 11011 11010 11009 11008 11007 11006 11005 11004 11003
11006 11001 10995 10991 10994 11000 11004 11008 11011 11016 11021 11024 11026 11027 11028 11029 11030 11029 11029 11029 11028 11028 11028 11027 11026 11025 11025 11027 11028 11028 11029 11029 11030 11030 11031 11031 11032 11032 11032 11032 11032 11032 11032 11031 11031 11031 11030 11031 11030 11030 11030 11030 11030 11029 11029 11028 11028 11027 11026 11026 11025 11024 11023 11022 11022 11021 11020 11019 11018 11017 11017 11016 11015 11014 11014 11013 11012 11011 11010 11009 11008 11007 11006 11005 11004
10995 10990 10986 10987 10994 10999 11002 11006 11009 11013 11019 11022 11025 11027 11027 11028 11029 11028 11028 11027 11026 11026 11025 11024 11021 11020 11021 11024 11026 11027 11028 11028 11028 11029 11030 11030 11031 11031 11031 11031 11031 11031 11031 11031 11031 11030 11030 11031 11031 11031 11031 11031 11030 11030 11030 11029 11028 11028 11027 11026 11026 11025 11024 11024 11023 11022 11021 11020 11019 11018 11018 11017 11016 11015 11014 11014 11013 11012 11011 11010 11009 11008 11007 11006 11005
10985 10982 10982 10986 10993 10997 11000 11003 11006 11011 11017 11020 11023 11025 11027 11028 11028 11028 11026 11023 11024 11025 11024 11021 11017 11013 11015 11019 11023 11025 11026 11026 11026 11026 11027 11028 11028 11028 11029 11029 11030 11030 11030 11030 11030 11030 11030 11031 11031 11031 11031 11031 11031 11030 11030 11030 11029 11029 11028 11027 11026 11026 11025 11025 11024 11024 11023 11022 11021 11020 11019 11018 11017 11016 11015 11015 11014 11013 11012 11012 11011 11010 11009 11008 11006
10976 10977 10980 10986 10991 10994 10997 11000 11004 11009 11014 11019 11022 11024 11026 11028 11029 11027 11022 11020 11023 11024 11022 11019 11013 11009 11012 11017 11020 11022 11024 11024 11024 11025 11026 11026 11026 11026 11026 11026 11027 11027 11028 11029 11029 11029 11030 11030 11030 11031 11031 11031 11031 11031 11030 11030 11030 11029 11028 11028 11027 11026 11026 11026 11025 11025 11024 11023 11022 11021 11021 11020 11019 11018 11017 11016 11015 11014 11014 11013 11012 11011 11010 11009 11008
10969 10973 10978 10983 10987 10991 10993 10997 11002 11006 11011 11017 11020 11022 11024 11026 11027 11024 11017 11017 11021 11021 11018 11015 11012 11011 11014 11017 11019 11020 11021 11022 11024 11025 11026 11026 11025 11025 11025 11025 11025 11026 11026 11027 11027 11027 11028 11029 11029 11030 11030 11030 11031 11031 11030 11030 11030 11029 11029 11028 11027 11027 11026 11026 11026 11025 11025 11024 11023 11022 11022 11021 11020 11019 11018 11017 11017 11016 11015 11015 11014 11013 11012 11011 11009
10963 10968 10974 10978 10983 10987 10990 10995 11000 11004 11010 11016 11018 11019 11021 11023 11021 11017 11013 11015 11017 11016 11015 11014 11013 11014 11016 11018 11018 11019 11019 11021 11023 11024 11025 11025 11025 11025 11024 11024 11025 11025 11026 11026 11026 11026 11026 11026 11027 11028 11029 11029 11030 11030 11030 11030 11030 11029 11029 11028 11027 11027 11026 11026 11026 11026 11025 11025 11024 11023 11023 11022 11021 11020 11019 11019 11018 11017 11017 11016 11015 11014 11013 11012 11011
10957 10962 10968 10974 10978 10981 10985 10991 10996 11001 11008 11014 11016 11017 11019 11019 11015 11009 11011 11015 11015 11012 11012 11013 11013 11013 11015 11017 11017 11016 11017 11019 11021 11022 11023 11024 11024 11024 11024 11023 11024 11024 11025 11025 11026 11025 11025 11024 11025 11026 11027 11028 11028 11029 11029 11029 11029 11029 11028 11028 11027 11027 11026 11026 11026 11026 11025 11025 11024 11024 11023 11023 11022 11021 11020 11020 11019 11019 11018 11017 11016 11016 11015 11013 11012
10951 10955 10960 10967 10973 10976 10980 10985 10991 10997 11003 11009 11012 11014 11016 11015 11008 11002 11007 11012 11010 11009 11010 11011 11012 11011 11011 11013 11014 11013 11015 11018 11020 11020 11021 11022 11022 11022 11023 11023 11023 11023 11023 11024 11024 11025 11025 11024 11024 11025 11025 11026 11027 11027 11028 11028 11028 11028 11028 11028 11027 11027 11027 11026 11026 11026 11026 11025 11025 11024 11024 11023 11023 11022 11021 11021 11020 11020 11019 11018 11017 11017 11016 11015 11013
10943 10947 10952 10959 10966 10971 10974 10979 10985 10991 10996 11000 11005 11008 11009 11008 11001 10997 11001 11006 11004 11005 11007 11008 11009 11009 11009 11010 11010 11011 11012 11015 11018 11019 11018 11018 11019 11019 11020 11021 11022 11022 11022 11023 11023 11024 11024 11024 11024 11024 11024 11025 11026 11026 11027 11027 11027 11027 11027 11027 11027 11027 11027 11026 11026 11026 11026 11026 11026 11025 11025 11024 11023 11023 11022 11021 11021 11021 11020 11019 11018 11018 11017 11016 11015
10936 10939 10944 10951 10959 10964 10968 10972 10977 10982 10987 10993 10997 11000 11001 11000 10996 10992 10995 10999 10999 11000 11002 11003 11005 11006 11006 11007 11008 11008 11008 11011 11015 11016 11015 11015 11016 11017 11018 11019 11020 11021 11021 11021 11022 11022 11023 11023 11023 11023 11024 11024 11025 11025 11026 11026 11026 11027 11027 11027 11026 11026 11026 11026 11026 11026 11026 11026 11026 11025 11025 11024 11024 11023 11022 11022 11021 11021 11021 11020 11019 11019 11017 11017 11015
10928 10932 10937 10943 10951 10957 10961 10965 10969 10974 10980 10985 10988 10991 10994 10993 10989 10986 10988 10993 10994 10995 10997 10998 11000 11002 11003 11004 11005 11004 11005 11008 11011 11013 11013 11013 11012 11013 11015 11016 11017 11018 11019 11019 11020 11020 11021 11022 11022 11023 11023 11023 11024 11024 11025 11025 11025 11026 11026 11026 11026 11025 11025 11025 11025 11025 11025 11025 11025 11025 11025 11025 11024 11023 11023 11022 11021 11021 11021 11020 11020 11019 11018 11017 11016
10920 10924 10929 10935 10942 10949 10955 10959 10962 10966 10971 10976 10980 10984 10985 10983 10982 10981 10983 10985 10988 10989 10991 10993 10995 10998 11000 11001 11001 11001 11002 11004 11007 11009 11010 11010 11010 11010 11011 11013 11014 11015 11016 11017 11017 11019 11020 11020 11021 11021 11022 11022 11023 11023 11024 11024 11024 11025 11025 11025 11025 11024 11024 11023 11023 11023 11024 11024 11024 11024 11025 11024 11024 11023 11022 11022 11021 11021 11020 11020 11019 11019 11018 11017 11016
10913 10916 10922 10927 10934 10941 10947 10952 10955 10958 10963 10967 10971 10975 10976 10975 10977 10979 10979 10979 10982 10984 10986 10988 10990 10993 10994 10995 10996 10996 10997 10999 11003 11005 11006 11007 11008 11007 11008 11009 11011 11012 11013 11014 11015 11016 11017 11018 11019 11019 11020 11021 11022 11022 11023 11023 11023 11024 11024 11024 11024 11023 11023 11022 11022 11022 11022 11022 11023 11023 11023 11023 11023 11022 11022 11021 11021 11020 11020 11019 11019 11018 11018 11017 11016
10907 10910 10915 10919 10925 10932 10938 10944 10947 10950 10954 10959 10963 10967 10968 10968 10971 10973 10973 10974 10977 10979 10981 10984 10986 10987 10987 10988 10990 10992 10994 10996 10998 11000 11002 11004 11004 11004 11004 11005 11007 11008 11010 11011 11012 11013 11014 11015 11016 11017 11018 11019 11020 11021 11022 11022 11022 11022 11022 11021 11021 11021 11021 11020 11020 11020 11020 11020 11020 11021 11021 11022 11022 11021 11021 11020 11020 11020 11019 11019 11018 11018 11017 11016 11016
10899 10903 10907 10912 10917 10923 10930 10935 10939 10942 10946 10950 10954 10957 10959 10961 10963 10964 10967 10969 10971 10974 10976 10979 10981 10981 10980 10981 10984 10987 10991 10993 10994 10994 10996 10998 11000 11000 11001 11002 11003 11004 11006 11008 11009 11010 11011 11012 11013 11014 11015 11017 11018 11019 11019 11020 11020 11020 11019 11019 11018 11018 11018 11018 11019 11019 11018 11018 11019 11019 11019 11020 11020 11020 11019 11019 11019 11019 11018 11018 11018 11017 11017 11016 11016
10890 10895 10900 10905 10909 10915 10920 10926 10930 10933 10937 10941 10944 10948 10951 10953 10955 10958 10961 10963 10965 10968 10970 10972 10975 10976 10974 10975 10978 10981 10985 10987 10988 10988 10990 10993 10994 10996 10997 10997 10998 11000 11002 11004 11006 11007 11008 11010 11010 11011 11013 11014 11015 11016 11016 11016 11017 11017 11016 11016 11016 11016 11017 11017 11018 11018 11018 11018 11018 11018 11018 11019 11019 11019 11018 11018 11017 11017 11017 11017 11017 11017 11016 11016 11015
10881 10886 10890 10895 10900 10905 10910 10916 10920 10924 10927 10930 10934 10939 10943 10945 10948 10951 10952 10954 10958 10961 10963 10966 10968 10970 10970 10970 10972 10975 10978 10981 10982 10983 10985 10987 10989 10990 10992 10993 10995 10996 10998 11000 11002 11004 11005 11006 11007 11008 11009 11011 11012 11012 11011 11012 11012 11014 11014 11015 11015 11015 11015 11016 11016 11017 11017 11017 11017 11017 11018 11018 11018 11018 11017 11017 11016 11016 11015 11015 11015 11015 11015 11015 11015
10871 10875 10879 10883 10888 10894 10900 10906 10910 10914 10917 10921 10925 10930 10934 10937 10940 10942 10944 10947 10950 10953 10956 10958 10961 10963 10964 10965 10966 10969 10972 10975 10977 10977 10979 10981 10983 10985 10987 10989 10991 10992 10994 10996 10999 11002 11002 11003 11003 11004 11005 11007 11008 11007 11007 11008 11010 11012 11013 11013 11013 11013 11013 11013 11013 11014 11014 11014 11014 11014 11014 11015 11015 11016 11016 11016 11015 11014 11014 11014 11014 11013 11013 11014 11013
10858 10863 10868 10872 10877 10883 10889 10895 10900 10904 10908 10913 10917 10920 10924 10928 10931 10934 10936 10940 10942 10944 10947 10950 10953 10955 10957 10958 10960 10963 10965 10968 10971 10972 10973 10975 10976 10979 10981 10984 10986 10988 10990 10993 10997 10999 11000 11000 11000 11000 11001 11003 11003 11003 11004 11006 11008 11009 11010 11010 11010 11010 11010 11010 11011 11011 11011 11011 11010 11010 11010 11011 11012 11012 11013 11013 11012 11012 11011 11011 11012 11011 11011 11012 11012
10844 10851 10855 10860 10865 10872 10879 10884 10889 10894 10898 10904 10908 10911 10913 10917 10921 10924 10928 10930 10933 10936 10939 10942 10944 10947 10949 10950 10953 10956 10959 10962 10964 10966 10968 10969 10970 10972 10974 10977 10980 10982 10985 10989 10993 10994 10996 10996 10995 10994 10996 10997 10999 11001 11002 11003 11004 11005 11006 11007 11007 11007 11007 11007 11008 11009 11009 11008 11008 11008 11007 11007 11008 11009 11010 11010 11009 11009 11008 11009 11009 11009 11009 11010 11010
10831 10837 10842 10848 10855 10863 10869 10873 10877 10882 10888 10894 10900 10903 10905 10906 10910 10914 10918 10921 10924 10928 10931 10933 10936 10938 10940 10942 10944 10948 10952 10955 10957 10959 10961 10963 10964 10966 10967 10970 10974 10977 10980 10984 10987 10989 10990 10991 10989 10988 10990 10991 10994 10997 10999 10999 10999 11000 11001 11002 11003 11003 11003 11003 11004 11004 11005 11005 11005 11005 11004 11004 11004 11005 11006 11006 11006 11006 11006 11006 11006 11006 11007 11008 11008
10819 10824 10830 10837 10845 10853 10859 10863 10866 10871 10877 10884 10890 10893 10895 10897 10900 10905 10909 10912 10915 10918 10921 10924 10927 10928 10931 10933 10936 10939 10943 10947 10950 10952 10953 10956 10958 10959 10961 10964 10967 10970 10974 10977 10979 10981 10983 10982 10981 10982 10984 10985 10988 10991 10993 10994 10994 10995 10996 10997 10998 10999 10999 11000 11000 11000 11000 11001 11002 11002 11002 11001 11001 11001 11002 11002 11002 11003 11003 11002 11002 11003 11005 11006 11006
10808 10814 10819 10826 10834 10841 10848 10852 10855 10860 10866 10873 10879 10882 10886 10889 10892 10896 10900 10903 10906 10909 10911 10914 10917 10919 10922 10924 10927 10930 10933 10937 10941 10944 10945 10948 10950 10952 10954 10957 10960 10963 10966 10969 10971 10972 10973 10973 10974 10975 10977 10979 10981 10984 10987 10989 10990 10990 10991 10992 10993 10994 10995 10996 10995 10995 10996 10997 10998 10999 10999 10999 10999 10998 10998 10998 10999 10999 10999 10999 10999 11000 11002 11003 11004
10797 10803 10809 10816 10822 10828 10834 10840 10844 10849 10854 10861 10867 10871 10875 10879 10882 10886 10890 10894 10897 10900 10902 10905 10907 10910 10913 10916 10918 10920 10924 10927 10931 10934 10937 10939 10942 10944 10947 10950 10953 10956 10959 10961 10963 10964 10964 10965 10966 10967 10969 10971 10974 10977 10980 10983 10984 10985 10985 10986 10988 10989 10991 10991 10991 10990 10991 10992 10993 10994 10995 10995 10995 10995 10994 10994 10995 10995 10995 10995 10996 10997 10999 11000 11001
10787 10794 10800 10807 10812 10817 10822 10827 10832 10837 10841 10847 10853 10858 10863 10867 10871 10875 10880 10883 10887 10890 10893 10895 10897 10900 10903 10906 10909 10911 10914 10917 10921 10924 10927 10930 10932 10935 10938 10941 10944 10947 10950 10952 10954 10955 10955 10956 10957 10959 10962 10964 10967 10970 10973 10975 10977 10979 10979 10980 10981 10984 10985 10986 10985 10985 10986 10987 10988 10989 10990 10990 10991 10991 10990 10990 10990 10991 10992 10992 10993 10993 10995 10996 10997
10776 10782 10789 10796 10802 10806 10809 10814 10819 10824 10829 10834 10840 10845 10850 10855 10860 10864 10868 10872 10875 10878 10881 10884 10887 10890 10893 10896 10898 10902 10905 10908 10911 10914 10917 10920 10923 10926 10929 10931 10934 10937 10940 10943 10945 10946 10946 10947 10949 10952 10954 10956 10959 10963 10965 10967 10969 10971 10972 10973 10975 10977 10979 10980 10980 10980 10981 10982 10983 10984 10984 10984 10985 10986 10986 10986 10986 10986 10987 10988 10989 10989 10990 10992 10993
10764 10769 10775 10782 10788 10793 10797 10801 10806 10811 10816 10821 10827 10832 10836 10842 10847 10852 10856 10859 10863 10866 10869 10872 10876 10879 10882 10885 10888 10891 10894 10897 10900 10904 10908 10911 10914 10917 10920 10922 10924 10927 10930 10933 10936 10937 10938 10939 10941 10944 10946 10948 10951 10954 10957 10959 10961 10963 10965 10966 10968 10969 10972 10974 10974 10974 10975 10976 10977 10978 10978 10978 10979 10980 10980 10981 10981 10982 10983 10984 10984 10985 10986 10988 10989
10748 10754 10761 10768 10774 10780 10784 10788 10793 10798 10802 10808 10813 10818 10823 10828 10834 10839 10842 10846 10850 10853 10856 10860 10864 10868 10872 10875 10878 10881 10883 10887 10890 10893 10897 10901 10905 10908 10911 10913 10915 10917 10920 10923 10926 10928 10929 10931 10933 10935 10937 10940 10942 10945 10947 10950 10953 10954 10956 10959 10961 10962 10965 10967 10967 10968 10969 10970 10971 10971 10971 10972 10972 10973 10974 10975 10976 10977 10979 10980 10980 10982 10983 10984 10985
10734 10741 10748 10754 10760 10765 10771 10775 10780 10784 10788 10793 10798 10804 10809 10814 10820 10824 10828 10833 10837 10841 10845 10848 10852 10856 10860 10863 10866 10869 10872 10876 10880 10883 10887 10890 10894 10897 10901 10903 10906 10908 10910 10912 10915 10917 10920 10922 10925 10927 10929 10931 10933 10935 10937 10941 10944 10946 10949 10951 10953 10955 10957 10960 10961 10961 10962 10963 10963 10964 10965 10965 10966 10967 10968 10969 10970 10972 10974 10976 10976 10977 10978 10979 10980
10721 10728 10734 10739 10744 10750 10756 10762 10767 10770 10774 10778 10783 10789 10795 10800 10806 10810 10815 10820 10825 10830 10833 10836 10840 10843 10847 10851 10854 10858 10862 10866 10870 10873 10876 10879 10882 10886 10889 10892 10895 10898 10900 10902 10904 10907 10910 10913 10915 10918 10920 10922 10924 10925 10928 10931 10935 10938 10940 10942 10944 10947 10950 10952 10954 10954 10955 10955 10956 10957 10958 10959 10960 10961 10962 10964 10965 10967 10969 10971 10972 10972 10973 10974 10975
10707 10712 10717 10723 10729 10735 10742 10748 10752 10755 10759 10764 10769 10774 10780 10787 10792 10797 10802 10807 10812 10816 10820 10823 10827 10831 10835 10839 10843 10847 10851 10854 10857 10861 10864 10867 10870 10874 10877 10880 10883 10887 10890 10892 10894 10896 10898 10902 10905 10907 10910 10913 10915 10916 10919 10923 10927 10929 10931 10933 10935 10938 10942 10944 10946 10947 10948 10948 10949 10950 10951 10952 10954 10956 10957 10958 10959 10961 10963 10965 10966 10967 10968 10969 10969
10693 10697 10701 10707 10714 10720 10726 10731 10735 10740 10745 10750 10756 10761 10766 10772 10778 10783 10788 10792 10797 10801 10806 10810 10815 10819 10823 10827 10831 10835 10838 10841 10844 10847 10850 10854 10858 10862 10866 10869 10872 10875 10879 10882 10884 10886 10887 10891 10894 10897 10900 10903 10905 10906 10910 10915 10917 10919 10921 10923 10926 10930 10934 10936 10938 10940 10941 10940 10941 10943 10944 10946 10948 10950 10952 10953 10954 10955 10957 10958 10960 10961 10962 10963 10964